Regional Weather Roundup
Issued by NWS

Home | Current Version | Previous Version | Graphics & Text | Print | Product List | Glossary On
Versions: 1 2 3 4 5 6 7 8 9 10 11 12 13 14 15 16 17 18 19 20 21 22 23 24 25 26 27 28 29 30 31 32 33 34 35 36 37 38 39 40 41 42 43 44 45 46 47 48 49 50
000
ASUS43 KBIS 200410
RWRND

NORTH DAKOTA REGIONAL WEATHER ROUNDUP
NATIONAL WEATHER SERVICE BISMARCK ND
1000 PM CST THU JAN 19 2017

NOTE: "FAIR" INDICATES FEW OR NO CLOUDS BELOW 12,000 FEET WITH NO
SIGNIFICANT WEATHER AND/OR OBSTRUCTIONS TO VISIBILITY.


NDZ001>003-009>011-017-200500-
NORTHWEST NORTH DAKOTA

CITY           SKY/WX    TMP DP  RH WIND       PRES   REMARKS
WILLISTON      FAIR      16  14  92 SW5       29.43F WCI   9
MINOT          FAIR      25  21  85 SW8       29.41F WCI  16
MINOT AFB      CLOUDY    22  18  85 W5        29.41S WCI  16
$$

NDZ018>021-031>035-040>046-200500-
SOUTHWEST NORTH DAKOTA

CITY           SKY/WX    TMP DP  RH WIND       PRES   REMARKS
BISMARCK       FAIR      12   9  87 E6        29.48F WCI   3
DICKINSON      FAIR      18  15  88 W7        29.40F WCI   9
GARRISON         N/A     15  12  88 CALM      29.43S
HETTINGER ARPT CLOUDY    20  15  81 CALM      29.44S
$$

NDZ004>008-012>016-024-026-027-054-200500-
NORTHEAST NORTH DAKOTA

CITY           SKY/WX    TMP DP  RH WIND       PRES   REMARKS
GRAND FORKS    CLOUDY    35  32  88 S18       29.55F FOG
GRND FRKS AFB  CLOUDY    33  33  99 S18       29.54S
DEVILS LAKE    CLOUDY    24  23  96 S7        29.49F FOG     WCI  16
$$

NDZ022-023-025-028>030-036>039-047>053-200500-
SOUTHEAST NORTH DAKOTA

CITY           SKY/WX    TMP DP  RH WIND       PRES   REMARKS
FARGO          CLOUDY    45  35  68 S14       29.58F HAZE
JAMESTOWN      CLOUDY    33  33 100 S13       29.50S FOG
$$





USA.gov is the U.S. government's official web portal to all federal, state and local government web resources and services.